TimeCDT,TemperatureF,Dew PointF,Humidity,Sea Level PressureIn,VisibilityMPH,Wind Direction,Wind SpeedMPH,Gust SpeedMPH,PrecipitationIn,Events,Conditions,WindDirDegrees,DateUTC
12:45 AM,21.2,14.0,74,30.10,1.8,SSE,8.1,-,0.00,Snow,Light Snow,150,2013-03-14 05:45:00
12:49 AM,21.2,15.8,80,30.10,0.8,SSE,8.1,-,0.00,Snow,Light Snow,150,2013-03-14 05:49:00
12:53 AM,19.9,16.0,85,30.19,0.8,SSE,8.1,-,0.00,Snow,Light Snow,150,2013-03-14 05:53:00
1:05 AM,19.4,17.6,93,30.10,1.0,SE,8.1,-,0.01,Snow,Light Snow,140,2013-03-14 06:05:00
1:30 AM,19.4,17.6,93,30.10,0.8,SSE,6.9,-,0.02,Snow,Light Snow,150,2013-03-14 06:30:00
1:50 AM,19.4,17.6,93,30.09,0.5,SE,5.8,-,0.04,Fog-Snow,Snow,130,2013-03-14 06:50:00
1:53 AM,19.9,17.1,89,30.17,0.5,SE,5.8,-,0.05,Fog-Snow,Snow,130,2013-03-14 06:53:00
2:53 AM,19.9,18.0,92,30.16,0.8,SE,5.8,-,0.07,Snow,Light Snow,130,2013-03-14 07:53:00
3:25 AM,21.2,17.6,86,30.07,0.8,ESE,6.9,-,N/A,Snow,Light Snow,120,2013-03-14 08:25:00
3:29 AM,21.2,17.6,86,30.07,1.0,ESE,6.9,-,0.04,Snow,Light Snow,120,2013-03-14 08:29:00
3:47 AM,21.2,17.6,86,30.06,3.0,ESE,9.2,-,0.04,Snow,Light Snow,120,2013-03-14 08:47:00
3:53 AM,21.0,18.0,88,30.13,4.0,ESE,9.2,-,0.04,Snow,Light Snow,120,2013-03-14 08:53:00
4:00 AM,21.2,17.6,86,30.05,4.0,SE,9.2,-,N/A,Snow,Light Snow,130,2013-03-14 09:00:00
4:53 AM,21.9,19.0,89,30.09,10.0,SE,6.9,-,0.00,,Overcast,130,2013-03-14 09:53:00
5:12 AM,21.2,19.4,93,30.02,10.0,SE,6.9,-,N/A,,Overcast,130,2013-03-14 10:12:00
5:38 AM,21.2,19.4,93,30.03,10.0,SSE,3.5,-,N/A,,Overcast,150,2013-03-14 10:38:00
5:53 AM,23.0,21.0,92,30.11,10.0,South,3.5,-,N/A,,Overcast,170,2013-03-14 10:53:00
6:48 AM,23.0,21.2,93,30.06,10.0,Calm,Calm,-,N/A,,Overcast,0,2013-03-14 11:48:00
6:53 AM,23.0,21.0,92,30.14,10.0,Calm,Calm,-,N/A,,Overcast,0,2013-03-14 11:53:00
7:09 AM,23.0,21.2,93,30.06,10.0,SE,5.8,-,N/A,,Overcast,140,2013-03-14 12:09:00
7:18 AM,23.0,21.2,93,30.06,10.0,SE,4.6,-,N/A,,Overcast,130,2013-03-14 12:18:00
7:27 AM,23.0,19.4,86,30.05,10.0,SE,5.8,-,N/A,,Overcast,130,2013-03-14 12:27:00
7:53 AM,23.0,21.0,92,30.13,9.0,SSE,5.8,-,N/A,,Overcast,150,2013-03-14 12:53:00
8:53 AM,23.0,19.9,88,30.12,8.0,South,10.4,-,N/A,,Overcast,170,2013-03-14 13:53:00
9:53 AM,23.0,21.0,92,30.13,6.0,South,6.9,-,N/A,,Overcast,180,2013-03-14 14:53:00
10:53 AM,25.0,21.9,88,30.14,6.0,SW,6.9,-,N/A,,Overcast,230,2013-03-14 15:53:00
11:17 AM,24.8,21.2,86,30.08,4.0,WSW,5.8,-,N/A,,Mist,250,2013-03-14 16:17:00
11:53 AM,27.0,23.0,85,30.13,6.0,Calm,Calm,-,N/A,,Overcast,0,2013-03-14 16:53:00
12:15 PM,28.4,21.2,74,30.06,6.0,Calm,Calm,-,N/A,Snow,Light Snow,0,2013-03-14 17:15:00
12:53 PM,30.0,24.1,79,30.12,8.0,Calm,Calm,-,0.00,,Clear,0,2013-03-14 17:53:00
1:53 PM,32.0,25.0,75,30.11,8.0,Calm,Calm,-,N/A,,Clear,0,2013-03-14 18:53:00
2:53 PM,35.1,26.1,70,30.10,8.0,Calm,Calm,-,N/A,,Clear,0,2013-03-14 19:53:00
3:53 PM,35.1,27.0,72,30.09,9.0,WSW,3.5,-,N/A,,Clear,250,2013-03-14 20:53:00
4:53 PM,36.0,27.0,70,30.09,10.0,SW,6.9,-,N/A,,Clear,220,2013-03-14 21:53:00
5:53 PM,35.1,26.1,70,30.06,10.0,SW,8.1,-,N/A,,Clear,220,2013-03-14 22:53:00
6:53 PM,33.1,25.0,72,30.05,10.0,SW,8.1,-,N/A,,Clear,230,2013-03-14 23:53:00
7:53 PM,27.0,21.0,78,30.06,9.0,WSW,8.1,-,N/A,,Clear,250,2013-03-15 00:53:00
8:53 PM,24.1,19.9,84,30.06,8.0,WNW,6.9,-,N/A,,Clear,290,2013-03-15 01:53:00
9:53 PM,28.0,23.0,81,30.06,9.0,WNW,10.4,-,N/A,,Clear,300,2013-03-15 02:53:00
10:53 PM,28.0,23.0,81,30.06,8.0,NW,6.9,-,N/A,,Clear,320,2013-03-15 03:53:00
11:53 PM,27.0,23.0,85,30.07,7.0,NNW,9.2,-,N/A,,Partly Cloudy,330,2013-03-15 04:53:00